Leesburg, VA

8:27 PM EDT on October 22, 2019 (GMT -0400)
Leesburg Executive

Weather History for KJYO - May, 2019

Change the Weather History Date:

Tuesday, May 14, 2019

  Actual Average (KIAD) Record (KIAD)
Temperature  
Mean Temperature 52 °F -  
Max Temperature 59 °F 73 °F 89 °F (2010)
Min Temperature 44 °F 49 °F 32 °F (1996)
Degree Days  
Heating Degree Days 14    
Growing Degree Days 2 (Base 50)    
Moisture  
Dew Point 44 °F    
Average Humidity 77    
Maximum Humidity 100    
Minimum Humidity 55    
Precipitation  
Precipitation 0.00 in - - ()
Sea Level Pressure  
Sea Level Pressure 29.90 in    
Wind  
Wind Speed 7 mph (NW)    
Max Wind Speed 22 mph    
Max Gust Speed 30 mph    
Visibility 10 miles    
Events      
Averages and records for this station are not official NWS values.
T = Trace of Precipitation, MM = Missing Value Source: NWS Daily Summary

Daily Weather History Graph

Daily Weather History Graph

Search for Another Location

Airport or City:

Astronomy

May. 14, 2019 Rise Set
Actual Time 5:58 AM EDT 8:15 PM EDT
Civil Twilight 5:28 AM EDT 8:45 PM EDT
Nautical Twilight 4:51 AM EDT 9:22 PM EDT
Astronomical Twilight 4:11 AM EDT 10:03 PM EDT
Moon 3:37 PM EDT (5/14) 3:47 AM EDT (5/14)
Length of Visible Light 15h 16m
Length of Day
14h 16m
Waxing Gibbous, 79% of the Moon is Illuminated
May 14
Waxing Gibbous
May 18
Full
May 26
Last Quarter
Jun 3
New
Jun 10
First Quarter

Hourly Weather History & Observations

Time (EDT) Temp. Windchill Dew Point Humidity Pressure Visibility Wind Dir Wind Speed Gust Speed Precip Events Conditions
12:15 AM 48.2 °F - 48.2 °F 100% 29.85 in 10.0 mi West 3.5 mph - N/A   Overcast
12:35 AM 48.2 °F - 48.2 °F 100% 29.85 in 10.0 mi Calm Calm - N/A   Overcast
12:55 AM 48.2 °F - 48.2 °F 100% 29.85 in 10.0 mi Calm Calm - N/A   Overcast
1:15 AM 48.2 °F - 48.2 °F 100% 29.85 in 10.0 mi West 4.6 mph - N/A   Overcast
1:35 AM 50.0 °F - 50.0 °F 100% 29.84 in 10.0 mi WNW 6.9 mph - N/A   Overcast
2:15 AM 50.0 °F - 48.2 °F 94% 29.84 in 10.0 mi Calm Calm - N/A   Overcast
2:35 AM 48.2 °F - 48.2 °F 100% 29.84 in 10.0 mi Calm Calm - N/A   Overcast
2:55 AM 46.4 °F - 46.4 °F 100% 29.83 in 10.0 mi Calm Calm - N/A   Mostly Cloudy
3:15 AM 46.4 °F 45.2 °F 46.4 °F 100% 29.83 in 10.0 mi NNW 3.5 mph - N/A   Overcast
3:35 AM 48.2 °F - 48.2 °F 100% 29.83 in 10.0 mi NNW 5.8 mph - N/A   Overcast
3:55 AM 46.4 °F 44.3 °F 46.4 °F 100% 29.84 in 10.0 mi NNW 4.6 mph - N/A   Mostly Cloudy
4:15 AM 46.4 °F - 46.4 °F 100% 29.84 in 10.0 mi Calm Calm - N/A   Mostly Cloudy
4:30 AM 50.0 °F - 46.4 °F 87% 29.84 in 10.0 mi Calm Calm - N/A   Overcast
4:55 AM 46.4 °F - 46.4 °F 100% 29.85 in 10.0 mi Calm Calm - N/A   Scattered Clouds
5:15 AM 46.4 °F - 46.4 °F 100% 29.85 in 10.0 mi Calm Calm - N/A   Mostly Cloudy
5:35 AM 44.6 °F - 44.6 °F 100% 29.85 in 10.0 mi Calm Calm - N/A   Mostly Cloudy
5:55 AM 44.6 °F - 44.6 °F 100% 29.85 in 10.0 mi Calm Calm - N/A   Scattered Clouds
6:15 AM 44.6 °F - 44.6 °F 100% 29.86 in 10.0 mi Calm Calm - N/A   Scattered Clouds
6:35 AM 44.6 °F - 44.6 °F 100% 29.86 in 10.0 mi Calm Calm - N/A   Scattered Clouds
6:55 AM 44.6 °F 42.2 °F 44.6 °F 100% 29.86 in 10.0 mi West 4.6 mph - N/A   Scattered Clouds
7:15 AM 46.4 °F 43.5 °F 46.4 °F 100% 29.87 in 10.0 mi West 5.8 mph - N/A   Scattered Clouds
7:35 AM 48.2 °F - 46.4 °F 93% 29.87 in 10.0 mi WNW 4.6 mph - N/A   Mostly Cloudy
7:55 AM 51.8 °F - 46.4 °F 82% 29.87 in 10.0 mi WNW 8.1 mph - N/A   Scattered Clouds
8:15 AM 51.8 °F - 44.6 °F 76% 29.88 in 10.0 mi NW 15.0 mph 19.6 mph N/A   Mostly Cloudy
8:35 AM 50.0 °F - 44.6 °F 82% 29.89 in 10.0 mi NNW 13.8 mph - N/A   Overcast
8:55 AM 51.8 °F - 46.4 °F 82% 29.89 in 10.0 mi NW 13.8 mph 19.6 mph N/A   Mostly Cloudy
9:15 AM 51.8 °F - 44.6 °F 76% 29.90 in 10.0 mi WNW 15.0 mph 21.9 mph N/A   Mostly Cloudy
9:35 AM 53.6 °F - 42.8 °F 67% 29.90 in 10.0 mi NW 18.4 mph 28.8 mph N/A   Scattered Clouds
9:55 AM 51.8 °F - 41.0 °F 67% 29.90 in 10.0 mi NW 18.4 mph 28.8 mph N/A   Mostly Cloudy
10:15 AM 53.6 °F - 41.0 °F 62% 29.91 in 10.0 mi NW 21.9 mph 29.9 mph N/A   Scattered Clouds
10:35 AM 55.4 °F - 41.0 °F 58% 29.90 in 10.0 mi WNW 21.9 mph 28.8 mph N/A   Scattered Clouds
10:55 AM 53.6 °F - 41.0 °F 62% 29.91 in 10.0 mi WNW 10.4 mph 17.3 mph N/A   Mostly Cloudy
11:15 AM 53.6 °F - 41.0 °F 62% 29.91 in 10.0 mi WNW 12.7 mph 17.3 mph N/A   Overcast
11:35 AM 53.6 °F - 41.0 °F 62% 29.91 in 10.0 mi NNW 15.0 mph 23.0 mph N/A   Overcast
11:55 AM 53.6 °F - 41.0 °F 62% 29.92 in 10.0 mi NNW 10.4 mph 19.6 mph N/A   Overcast
12:15 PM 55.4 °F - 41.0 °F 58% 29.91 in 10.0 mi NNW 11.5 mph 16.1 mph N/A   Overcast
12:35 PM 57.2 °F - 42.8 °F 59% 29.91 in 10.0 mi WNW 15.0 mph 21.9 mph N/A   Mostly Cloudy
12:55 PM 55.4 °F - 41.0 °F 58% 29.90 in 10.0 mi NNW 11.5 mph 17.3 mph N/A   Mostly Cloudy
1:15 PM 59.0 °F - 42.8 °F 55% 29.90 in 10.0 mi WNW 20.7 mph 26.5 mph N/A   Overcast
1:35 PM 55.4 °F - 41.0 °F 58% 29.90 in 10.0 mi WNW 17.3 mph 23.0 mph N/A   Overcast
1:55 PM 57.2 °F - 41.0 °F 55% 29.90 in 10.0 mi WNW 16.1 mph 25.3 mph N/A   Overcast
2:15 PM 57.2 °F - 41.0 °F 55% 29.90 in 10.0 mi NW 13.8 mph 20.7 mph N/A   Overcast
2:35 PM 57.2 °F - 42.8 °F 59% 29.90 in 10.0 mi WNW 16.1 mph 24.2 mph N/A   Overcast
2:55 PM 59.0 °F - 42.8 °F 55% 29.90 in 10.0 mi WNW 15.0 mph 24.2 mph N/A   Overcast
3:15 PM 57.2 °F - 42.8 °F 59% 29.90 in 10.0 mi NW 17.3 mph 21.9 mph N/A   Overcast
3:35 PM 57.2 °F - 42.8 °F 59% 29.89 in 10.0 mi WNW 16.1 mph 24.2 mph N/A   Overcast
3:55 PM 55.4 °F - 42.8 °F 63% 29.90 in 10.0 mi NW 13.8 mph 19.6 mph N/A   Overcast
4:15 PM 57.2 °F - 42.8 °F 59% 29.89 in 10.0 mi WNW 21.9 mph 25.3 mph N/A   Overcast
4:35 PM 57.2 °F - 42.8 °F 59% 29.89 in 10.0 mi NW 19.6 mph 28.8 mph N/A   Overcast
4:55 PM 59.0 °F - 44.6 °F 59% 29.89 in 10.0 mi NW 21.9 mph 28.8 mph N/A   Overcast
5:15 PM 57.2 °F - 42.8 °F 59% 29.90 in 10.0 mi NW 20.7 mph 28.8 mph N/A   Mostly Cloudy
5:35 PM 57.2 °F - 44.6 °F 63% 29.90 in 10.0 mi WNW 12.7 mph 24.2 mph N/A   Mostly Cloudy
5:55 PM 55.4 °F - 44.6 °F 67% 29.91 in 10.0 mi WNW 12.7 mph 25.3 mph N/A   Overcast
6:15 PM 55.4 °F - 42.8 °F 63% 29.91 in 10.0 mi NW 18.4 mph 24.2 mph N/A   Overcast
6:35 PM 57.2 °F - 44.6 °F 63% 29.91 in 10.0 mi NW 15.0 mph 25.3 mph N/A   Overcast
6:55 PM 55.4 °F - 44.6 °F 67% 29.91 in 10.0 mi NW 16.1 mph 21.9 mph N/A   Overcast
7:15 PM 55.4 °F - 44.6 °F 67% 29.92 in 10.0 mi NW 16.1 mph 25.3 mph N/A   Overcast
7:35 PM 55.4 °F - 44.6 °F 67% 29.92 in 10.0 mi NW 12.7 mph 16.1 mph N/A   Scattered Clouds
7:55 PM 53.6 °F - 42.8 °F 67% 29.93 in 10.0 mi NW 15.0 mph 20.7 mph N/A   Clear
8:15 PM 53.6 °F - 44.6 °F 72% 29.94 in 10.0 mi NW 8.1 mph 16.1 mph N/A   Clear
8:35 PM 53.6 °F - 44.6 °F 72% 29.95 in 10.0 mi NW 10.4 mph - N/A   Clear
8:55 PM 51.8 °F - 44.6 °F 76% 29.95 in 10.0 mi NW 6.9 mph - N/A   Clear
9:10 PM 51.8 °F - 44.6 °F 76% 29.95 in 10.0 mi NW 4.6 mph - N/A   Clear
9:35 PM 51.8 °F - 44.6 °F 76% 29.96 in 10.0 mi Calm Calm - N/A   Clear
9:50 PM 51.8 °F - 44.6 °F 76% 29.96 in 10.0 mi Calm Calm - N/A   Clear
10:15 PM 50.0 °F - 42.8 °F 76% 29.97 in 10.0 mi NW 4.6 mph - N/A   Clear
10:35 PM 48.2 °F - 44.6 °F 87% 29.97 in 10.0 mi West 3.5 mph - N/A   Clear
10:55 PM 50.0 °F - 44.6 °F 82% 29.98 in 10.0 mi NW 4.6 mph - N/A   Scattered Clouds
11:15 PM 50.0 °F - 44.6 °F 82% 29.98 in 10.0 mi NW 4.6 mph - N/A   Mostly Cloudy
11:35 PM 50.0 °F - 44.6 °F 82% 29.98 in 10.0 mi Calm Calm - N/A   Overcast
11:55 PM 50.0 °F - 44.6 °F 82% 29.98 in 10.0 mi Calm Calm - N/A   Scattered Clouds